IRIDIUM 147

Last updated on Sun Jun 21 2026 00:03:14 GMT+0000 (Coordinated Universal Time)

1 43480U 18047E 26171.31752623 .00000081 00000+0 21948-4 0 9991 2 43480 86.3959 87.0290 0002147 86.2008 273.9433 14.34218058422932
UTC large
Height (km)
Speed (km/s)
/
Latitude / Longitude
Inclination (degrees)
Orbital Period (minutes)
Azimuth
Elevation
Range (km)
Doppler Factor

Next 0 passes for location: London (51.5072 / 0.1276)

No passes found over London.
IRIDIUM 147